{"data":{"norad_id":62561,"epoch":"2026-05-25T02:37:42.436416Z","epoch_age_seconds":62766,"freshness":"FRESH","line1":"1 62561U 25006H   26145.10951894  .00160655  00000+0  12286-2 0  9991","line2":"2 62561  43.0041  39.0444 0002658 256.5448 103.5123 15.70893966 78625","mean_motion":15.70893966,"eccentricity":0.0002658,"inclination_deg":43.0041,"raan_deg":39.0444,"arg_perigee_deg":256.5448,"mean_anomaly_deg":103.5123,"bstar":0.0012286,"rev_number":7862,"period_min":91.667549253289,"perigee_km":354.55079685157,"apogee_km":358.13084526124,"semimajor_km":6734.4778210564,"source":"CELESTRAK","updated_at":"2026-05-25T13:38:19.707980Z"}}